LOCATION_NAME,SAMPLE COLLECTION TIME,DOSE EQUIVALENT RATE (nSv/h),GAMMA COUNT RATE R02 (CPM),GAMMA COUNT RATE R03 (CPM),GAMMA COUNT RATE R04 (CPM),GAMMA COUNT RATE R05 (CPM),GAMMA COUNT RATE R06 (CPM),GAMMA COUNT RATE R07 (CPM),GAMMA COUNT RATE R08 (CPM),GAMMA COUNT RATE R09 (CPM),STATUS
OK: OKLAHOMA CITY,01/01/2013 00:31:00,,2822.00,1943.00,557.00,314.00,173.00,218.00,134.00,48.00,APPROVED
OK: OKLAHOMA CITY,01/01/2013 01:32:00,,2842.00,1942.00,554.00,313.00,178.00,219.00,129.00,49.00,APPROVED
OK: OKLAHOMA CITY,01/01/2013 02:32:00,,2837.00,1934.00,551.00,310.00,176.00,216.00,132.00,50.00,APPROVED
OK: OKLAHOMA CITY,01/01/2013 03:32:00,,2841.00,1938.00,552.00,310.00,175.00,218.00,129.00,49.00,APPROVED
OK: OKLAHOMA CITY,01/01/2013 04:32:00,,2922.00,1999.00,566.00,326.00,180.00,223.00,136.00,51.00,APPROVED
OK: OKLAHOMA CITY,01/01/2013 05:32:00,,2919.00,2043.00,582.00,333.00,184.00,232.00,137.00,52.00,APPROVED
OK: OKLAHOMA CITY,01/01/2013 06:33:00,,2939.00,2025.00,566.00,321.00,183.00,228.00,132.00,50.00,APPROVED
OK: OKLAHOMA CITY,01/01/2013 07:33:00,,3225.00,2323.00,654.00,380.00,202.00,268.00,149.00,55.00,APPROVED
OK: OKLAHOMA CITY,01/01/2013 08:33:00,,3356.00,2518.00,701.00,440.00,220.00,302.00,164.00,58.00,APPROVED
OK: OKLAHOMA CITY,01/01/2013 09:33:00,,3576.00,2790.00,783.00,500.00,248.00,340.00,179.00,65.00,APPROVED
OK: OKLAHOMA CITY,01/01/2013 10:33:00,,3702.00,2974.00,839.00,547.00,259.00,376.00,197.00,69.00,APPROVED
OK: OKLAHOMA CITY,01/01/2013 11:34:00,,3807.00,3065.00,874.00,562.00,268.00,389.00,206.00,70.00,APPROVED
OK: OKLAHOMA CITY,01/01/2013 12:34:00,,3792.00,3045.00,864.00,560.00,267.00,382.00,204.00,71.00,APPROVED
OK: OKLAHOMA CITY,01/01/2013 13:34:00,,3722.00,2924.00,839.00,540.00,262.00,372.00,197.00,66.00,APPROVED
OK: OKLAHOMA CITY,01/01/2013 14:34:00,,3652.00,2850.00,822.00,514.00,254.00,359.00,189.00,64.00,APPROVED
OK: OKLAHOMA CITY,01/01/2013 15:35:00,,3549.00,2747.00,783.00,492.00,242.00,344.00,184.00,67.00,APPROVED
OK: OKLAHOMA CITY,01/01/2013 16:35:00,,3461.00,2661.00,757.00,462.00,234.00,327.00,174.00,65.00,APPROVED
OK: OKLAHOMA CITY,01/01/2013 17:35:00,,3352.00,2545.00,730.00,439.00,225.00,309.00,170.00,60.00,APPROVED
OK: OKLAHOMA CITY,01/01/2013 18:35:00,,3277.00,2444.00,704.00,424.00,217.00,292.00,161.00,60.00,APPROVED
OK: OKLAHOMA CITY,01/01/2013 19:35:00,,3229.00,2370.00,678.00,398.00,209.00,284.00,156.00,60.00,APPROVED
OK: OKLAHOMA CITY,01/01/2013 20:36:00,,3189.00,2333.00,672.00,391.00,205.00,275.00,154.00,57.00,APPROVED
OK: OKLAHOMA CITY,01/01/2013 21:36:00,,3181.00,2308.00,665.00,384.00,203.00,272.00,149.00,56.00,APPROVED
OK: OKLAHOMA CITY,01/01/2013 22:36:00,,3178.00,2308.00,662.00,378.00,205.00,273.00,151.00,57.00,APPROVED
OK: OKLAHOMA CITY,01/01/2013 23:36:00,,3133.00,2276.00,642.00,374.00,198.00,266.00,146.00,58.00,APPROVED
OK: OKLAHOMA CITY,01/02/2013 00:36:00,,3058.00,2178.00,625.00,354.00,195.00,255.00,143.00,54.00,APPROVED
OK: OKLAHOMA CITY,01/02/2013 01:37:00,,3000.00,2095.00,604.00,333.00,188.00,247.00,134.00,53.00,APPROVED
OK: OKLAHOMA CITY,01/02/2013 02:37:00,,2956.00,2047.00,582.00,320.00,184.00,230.00,131.00,52.00,APPROVED
OK: OKLAHOMA CITY,01/02/2013 03:37:00,,2880.00,1953.00,557.00,301.00,174.00,215.00,122.00,53.00,APPROVED
OK: OKLAHOMA CITY,01/02/2013 04:37:00,,2911.00,1967.00,551.00,300.00,171.00,218.00,124.00,51.00,APPROVED
OK: OKLAHOMA CITY,01/02/2013 05:38:00,,2905.00,1946.00,559.00,290.00,170.00,212.00,122.00,51.00,APPROVED
OK: OKLAHOMA CITY,01/02/2013 06:38:00,,2886.00,1931.00,542.00,288.00,168.00,210.00,116.00,51.00,APPROVED
OK: OKLAHOMA CITY,01/02/2013 07:38:00,,2864.00,1930.00,543.00,287.00,173.00,210.00,119.00,50.00,APPROVED
OK: OKLAHOMA CITY,01/02/2013 08:38:00,,2801.00,1858.00,528.00,279.00,167.00,203.00,116.00,50.00,APPROVED
OK: OKLAHOMA CITY,01/02/2013 09:38:00,,2739.00,1773.00,504.00,258.00,156.00,191.00,110.00,47.00,APPROVED
OK: OKLAHOMA CITY,01/02/2013 10:39:00,,2738.00,1764.00,500.00,252.00,154.00,186.00,112.00,47.00,APPROVED
OK: OKLAHOMA CITY,01/02/2013 11:39:00,,2766.00,1789.00,512.00,263.00,158.00,189.00,113.00,46.00,APPROVED
OK: OKLAHOMA CITY,01/02/2013 12:39:00,,2776.00,1818.00,518.00,269.00,160.00,194.00,118.00,47.00,APPROVED
OK: OKLAHOMA CITY,01/02/2013 13:39:00,,2791.00,1831.00,517.00,270.00,161.00,197.00,115.00,48.00,APPROVED
OK: OKLAHOMA CITY,01/02/2013 14:40:00,,2800.00,1844.00,519.00,272.00,165.00,200.00,119.00,50.00,APPROVED
OK: OKLAHOMA CITY,01/02/2013 15:40:00,,2789.00,1825.00,520.00,268.00,165.00,192.00,116.00,48.00,APPROVED
OK: OKLAHOMA CITY,01/02/2013 16:40:00,,2777.00,1833.00,521.00,272.00,163.00,198.00,116.00,47.00,APPROVED
OK: OKLAHOMA CITY,01/02/2013 17:17:00,,2765.00,1824.00,534.00,267.00,166.00,200.00,115.00,47.00,APPROVED
OK: OKLAHOMA CITY,01/02/2013 18:32:00,,2634.00,1639.00,464.00,230.00,149.00,171.00,104.00,42.00,APPROVED
OK: OKLAHOMA CITY,01/02/2013 19:32:00,,2699.00,1740.00,492.00,260.00,158.00,188.00,114.00,46.00,APPROVED
OK: OKLAHOMA CITY,01/02/2013 20:32:00,,2740.00,1787.00,512.00,272.00,166.00,199.00,118.00,46.00,APPROVED
OK: OKLAHOMA CITY,01/02/2013 21:32:00,,2798.00,1823.00,521.00,282.00,167.00,199.00,124.00,47.00,APPROVED
OK: OKLAHOMA CITY,01/02/2013 22:33:00,,2823.00,1861.00,519.00,284.00,169.00,203.00,121.00,48.00,APPROVED
OK: OKLAHOMA CITY,01/02/2013 23:33:00,,2831.00,1858.00,519.00,285.00,170.00,201.00,123.00,47.00,APPROVED
OK: OKLAHOMA CITY,01/03/2013 00:33:00,,2878.00,1889.00,525.00,291.00,168.00,204.00,123.00,46.00,APPROVED
OK: OKLAHOMA CITY,01/03/2013 01:33:00,,2931.00,1924.00,529.00,293.00,168.00,207.00,125.00,49.00,APPROVED
OK: OKLAHOMA CITY,01/03/2013 02:33:00,,2896.00,1904.00,526.00,287.00,165.00,203.00,120.00,48.00,APPROVED
OK: OKLAHOMA CITY,01/03/2013 03:34:00,,2881.00,1872.00,518.00,283.00,165.00,199.00,116.00,47.00,APPROVED
OK: OKLAHOMA CITY,01/03/2013 04:34:00,,2844.00,1870.00,523.00,279.00,165.00,199.00,117.00,48.00,APPROVED
OK: OKLAHOMA CITY,01/03/2013 05:34:00,,2839.00,1853.00,518.00,278.00,166.00,198.00,119.00,46.00,APPROVED
OK: OKLAHOMA CITY,01/03/2013 06:34:00,,2840.00,1856.00,516.00,275.00,163.00,200.00,117.00,45.00,APPROVED
OK: OKLAHOMA CITY,01/03/2013 07:35:00,,2842.00,1862.00,514.00,279.00,166.00,198.00,118.00,46.00,APPROVED
OK: OKLAHOMA CITY,01/03/2013 08:35:00,,2844.00,1876.00,528.00,281.00,168.00,204.00,119.00,46.00,APPROVED
OK: OKLAHOMA CITY,01/03/2013 09:35:00,,2863.00,1887.00,526.00,286.00,168.00,203.00,119.00,48.00,APPROVED
OK: OKLAHOMA CITY,01/03/2013 10:35:00,,2900.00,1906.00,527.00,284.00,166.00,204.00,120.00,48.00,APPROVED
OK: OKLAHOMA CITY,01/03/2013 11:35:00,,2910.00,1891.00,522.00,275.00,166.00,200.00,119.00,48.00,APPROVED
OK: OKLAHOMA CITY,01/03/2013 12:36:00,,2897.00,1884.00,526.00,276.00,166.00,199.00,115.00,47.00,APPROVED
OK: OKLAHOMA CITY,01/03/2013 13:36:00,,2929.00,1883.00,525.00,273.00,162.00,196.00,118.00,47.00,APPROVED
OK: OKLAHOMA CITY,01/03/2013 14:36:00,,2925.00,1889.00,529.00,277.00,165.00,199.00,116.00,46.00,APPROVED
OK: OKLAHOMA CITY,01/03/2013 15:36:00,,2913.00,1875.00,520.00,273.00,164.00,197.00,112.00,47.00,APPROVED
OK: OKLAHOMA CITY,01/03/2013 16:37:00,,2841.00,1839.00,520.00,267.00,160.00,195.00,115.00,46.00,APPROVED
OK: OKLAHOMA CITY,01/03/2013 17:37:00,,2759.00,1788.00,509.00,265.00,161.00,192.00,117.00,46.00,APPROVED
OK: OKLAHOMA CITY,01/03/2013 18:37:00,,2690.00,1747.00,502.00,261.00,158.00,189.00,118.00,46.00,APPROVED
OK: OKLAHOMA CITY,01/03/2013 19:37:00,,2638.00,1701.00,496.00,255.00,156.00,184.00,116.00,45.00,APPROVED
OK: OKLAHOMA CITY,01/03/2013 20:37:00,,2678.00,1723.00,488.00,254.00,158.00,182.00,114.00,45.00,APPROVED
OK: OKLAHOMA CITY,01/03/2013 21:38:00,,2703.00,1727.00,486.00,252.00,157.00,180.00,112.00,45.00,APPROVED
OK: OKLAHOMA CITY,01/03/2013 22:38:00,,2710.00,1731.00,490.00,254.00,157.00,180.00,110.00,46.00,APPROVED
OK: OKLAHOMA CITY,01/03/2013 23:38:00,,2720.00,1722.00,481.00,247.00,155.00,178.00,110.00,44.00,APPROVED
OK: OKLAHOMA CITY,01/04/2013 00:38:00,,2701.00,1722.00,477.00,247.00,152.00,181.00,109.00,43.00,APPROVED
OK: OKLAHOMA CITY,01/04/2013 01:39:00,,2702.00,1712.00,483.00,249.00,151.00,178.00,108.00,46.00,APPROVED
OK: OKLAHOMA CITY,01/04/2013 02:39:00,,2724.00,1716.00,474.00,242.00,151.00,178.00,110.00,44.00,APPROVED
OK: OKLAHOMA CITY,01/04/2013 03:39:00,,2721.00,1706.00,474.00,240.00,153.00,176.00,106.00,44.00,APPROVED
OK: OKLAHOMA CITY,01/04/2013 04:39:00,,2719.00,1706.00,473.00,237.00,152.00,177.00,105.00,44.00,APPROVED
OK: OKLAHOMA CITY,01/04/2013 05:39:00,,2730.00,1725.00,479.00,243.00,151.00,174.00,108.00,43.00,APPROVED
OK: OKLAHOMA CITY,01/04/2013 06:40:00,,2746.00,1740.00,478.00,246.00,152.00,179.00,107.00,44.00,APPROVED
OK: OKLAHOMA CITY,01/04/2013 07:40:00,,2765.00,1752.00,484.00,248.00,157.00,179.00,109.00,43.00,APPROVED
OK: OKLAHOMA CITY,01/04/2013 15:58:00,,2761.00,1900.00,505.00,293.00,161.00,200.00,120.00,49.00,APPROVED
OK: OKLAHOMA CITY,01/04/2013 16:58:00,,2700.00,1855.00,497.00,288.00,161.00,197.00,122.00,51.00,APPROVED
OK: OKLAHOMA CITY,01/04/2013 17:59:00,,2632.00,1790.00,485.00,283.00,157.00,194.00,119.00,48.00,APPROVED
OK: OKLAHOMA CITY,01/04/2013 18:43:00,,2659.00,1801.00,484.00,287.00,160.00,192.00,117.00,48.00,APPROVED
OK: OKLAHOMA CITY,01/04/2013 19:58:00,,2648.00,1734.00,465.00,255.00,153.00,176.00,113.00,45.00,APPROVED
OK: OKLAHOMA CITY,01/04/2013 20:59:00,,2655.00,1761.00,482.00,272.00,155.00,185.00,115.00,46.00,APPROVED
OK: OKLAHOMA CITY,01/04/2013 21:59:00,,2679.00,1746.00,484.00,267.00,155.00,187.00,116.00,46.00,APPROVED
OK: OKLAHOMA CITY,01/04/2013 22:59:00,,2734.00,1756.00,498.00,269.00,159.00,190.00,115.00,47.00,APPROVED
OK: OKLAHOMA CITY,01/04/2013 23:59:00,,2775.00,1800.00,503.00,275.00,162.00,194.00,118.00,47.00,APPROVED
OK: OKLAHOMA CITY,01/05/2013 00:59:00,,2776.00,1812.00,509.00,276.00,167.00,196.00,122.00,45.00,APPROVED
OK: OKLAHOMA CITY,01/05/2013 02:00:00,,2768.00,1806.00,506.00,275.00,163.00,196.00,122.00,47.00,APPROVED
OK: OKLAHOMA CITY,01/05/2013 03:00:00,,2745.00,1789.00,504.00,273.00,162.00,193.00,119.00,47.00,APPROVED
OK: OKLAHOMA CITY,01/05/2013 04:00:00,,2727.00,1771.00,493.00,264.00,159.00,188.00,116.00,46.00,APPROVED
OK: OKLAHOMA CITY,01/05/2013 05:00:00,,2718.00,1763.00,494.00,259.00,159.00,186.00,112.00,47.00,APPROVED
OK: OKLAHOMA CITY,01/05/2013 06:01:00,,2724.00,1748.00,489.00,258.00,157.00,189.00,114.00,46.00,APPROVED
OK: OKLAHOMA CITY,01/05/2013 07:01:00,,2726.00,1763.00,492.00,259.00,156.00,186.00,113.00,43.00,APPROVED
OK: OKLAHOMA CITY,01/05/2013 08:01:00,,2753.00,1770.00,496.00,259.00,159.00,186.00,115.00,47.00,APPROVED
OK: OKLAHOMA CITY,01/05/2013 09:01:00,,2741.00,1761.00,495.00,256.00,158.00,190.00,114.00,45.00,APPROVED
OK: OKLAHOMA CITY,01/05/2013 10:01:00,,2741.00,1768.00,500.00,259.00,155.00,186.00,114.00,45.00,APPROVED
OK: OKLAHOMA CITY,01/05/2013 11:02:00,,2718.00,1770.00,497.00,263.00,159.00,187.00,113.00,46.00,APPROVED
OK: OKLAHOMA CITY,01/05/2013 12:02:00,,2734.00,1770.00,499.00,264.00,160.00,186.00,115.00,46.00,APPROVED
OK: OKLAHOMA CITY,01/05/2013 13:02:00,,2774.00,1798.00,503.00,264.00,159.00,190.00,116.00,45.00,APPROVED
OK: OKLAHOMA CITY,01/05/2013 14:02:00,,2812.00,1846.00,511.00,276.00,163.00,197.00,117.00,46.00,APPROVED
OK: OKLAHOMA CITY,01/05/2013 15:03:00,,2825.00,1874.00,528.00,283.00,166.00,200.00,119.00,47.00,APPROVED
OK: OKLAHOMA CITY,01/05/2013 16:03:00,,2838.00,1895.00,525.00,288.00,168.00,208.00,122.00,49.00,APPROVED
OK: OKLAHOMA CITY,01/05/2013 17:03:00,,2826.00,1876.00,530.00,290.00,170.00,208.00,121.00,47.00,APPROVED
OK: OKLAHOMA CITY,01/05/2013 18:03:00,,2799.00,1855.00,530.00,287.00,170.00,205.00,122.00,50.00,APPROVED
OK: OKLAHOMA CITY,01/05/2013 19:03:00,,2739.00,1823.00,523.00,286.00,169.00,205.00,125.00,49.00,APPROVED
OK: OKLAHOMA CITY,01/05/2013 20:04:00,,2692.00,1802.00,522.00,289.00,168.00,201.00,122.00,50.00,APPROVED
OK: OKLAHOMA CITY,01/05/2013 21:04:00,,2717.00,1822.00,523.00,288.00,170.00,202.00,125.00,48.00,APPROVED
OK: OKLAHOMA CITY,01/05/2013 22:04:00,,2725.00,1830.00,529.00,289.00,167.00,205.00,127.00,50.00,APPROVED
OK: OKLAHOMA CITY,01/06/2013 00:04:00,,2737.00,1826.00,523.00,289.00,168.00,206.00,130.00,49.00,APPROVED
OK: OKLAHOMA CITY,01/06/2013 01:05:00,,2744.00,1829.00,522.00,282.00,168.00,203.00,123.00,47.00,APPROVED
OK: OKLAHOMA CITY,01/06/2013 02:05:00,,2743.00,1813.00,517.00,283.00,164.00,195.00,124.00,48.00,APPROVED
OK: OKLAHOMA CITY,01/06/2013 03:05:00,,2867.00,1904.00,532.00,292.00,170.00,209.00,127.00,48.00,APPROVED
OK: OKLAHOMA CITY,01/06/2013 04:05:00,,3104.00,2126.00,588.00,338.00,185.00,230.00,137.00,51.00,APPROVED
OK: OKLAHOMA CITY,01/06/2013 05:06:00,,3189.00,2217.00,616.00,360.00,200.00,247.00,142.00,54.00,APPROVED
OK: OKLAHOMA CITY,01/06/2013 06:06:00,,3174.00,2217.00,607.00,360.00,196.00,243.00,144.00,54.00,APPROVED
OK: OKLAHOMA CITY,01/06/2013 07:06:00,,3107.00,2159.00,599.00,345.00,187.00,237.00,139.00,53.00,APPROVED
OK: OKLAHOMA CITY,01/06/2013 08:06:00,,3050.00,2099.00,586.00,331.00,185.00,229.00,136.00,51.00,APPROVED
OK: OKLAHOMA CITY,01/06/2013 09:06:00,,2999.00,2030.00,566.00,315.00,178.00,222.00,132.00,52.00,APPROVED
OK: OKLAHOMA CITY,01/06/2013 10:07:00,,2956.00,1977.00,554.00,299.00,174.00,214.00,123.00,49.00,APPROVED
OK: OKLAHOMA CITY,01/06/2013 11:07:00,,2913.00,1931.00,538.00,289.00,167.00,205.00,122.00,49.00,APPROVED
OK: OKLAHOMA CITY,01/06/2013 12:07:00,,2895.00,1921.00,531.00,283.00,168.00,205.00,120.00,49.00,APPROVED
OK: OKLAHOMA CITY,01/06/2013 13:07:00,,2873.00,1900.00,531.00,279.00,169.00,199.00,119.00,50.00,APPROVED
OK: OKLAHOMA CITY,01/06/2013 14:07:00,,2873.00,1894.00,523.00,279.00,165.00,200.00,121.00,49.00,APPROVED
OK: OKLAHOMA CITY,01/06/2013 15:08:00,,2865.00,1875.00,525.00,277.00,167.00,201.00,118.00,48.00,APPROVED
OK: OKLAHOMA CITY,01/06/2013 16:08:00,,2818.00,1844.00,522.00,273.00,166.00,195.00,119.00,49.00,APPROVED
OK: OKLAHOMA CITY,01/06/2013 17:08:00,,2738.00,1792.00,512.00,267.00,164.00,196.00,119.00,47.00,APPROVED
OK: OKLAHOMA CITY,01/06/2013 18:08:00,,2626.00,1729.00,501.00,264.00,159.00,192.00,119.00,50.00,APPROVED
OK: OKLAHOMA CITY,01/06/2013 19:09:00,,2527.00,1656.00,491.00,254.00,156.00,183.00,116.00,47.00,APPROVED
OK: OKLAHOMA CITY,01/06/2013 20:09:00,,2564.00,1668.00,480.00,254.00,154.00,182.00,114.00,44.00,APPROVED
OK: OKLAHOMA CITY,01/06/2013 21:09:00,,2602.00,1668.00,476.00,247.00,155.00,180.00,113.00,47.00,APPROVED
OK: OKLAHOMA CITY,01/06/2013 22:09:00,,2605.00,1674.00,474.00,247.00,150.00,179.00,112.00,46.00,APPROVED
OK: OKLAHOMA CITY,01/06/2013 23:09:00,,2593.00,1666.00,476.00,244.00,155.00,173.00,115.00,44.00,APPROVED
OK: OKLAHOMA CITY,01/07/2013 00:10:00,,2590.00,1664.00,477.00,243.00,154.00,179.00,112.00,45.00,APPROVED
OK: OKLAHOMA CITY,01/07/2013 01:10:00,,2592.00,1669.00,470.00,247.00,155.00,174.00,112.00,46.00,APPROVED
OK: OKLAHOMA CITY,01/07/2013 02:10:00,,2614.00,1680.00,478.00,247.00,150.00,177.00,112.00,44.00,APPROVED
OK: OKLAHOMA CITY,01/07/2013 03:10:00,,2626.00,1678.00,476.00,247.00,152.00,175.00,113.00,45.00,APPROVED
OK: OKLAHOMA CITY,01/07/2013 04:11:00,,2622.00,1666.00,475.00,241.00,152.00,175.00,112.00,45.00,APPROVED
OK: OKLAHOMA CITY,01/07/2013 05:11:00,,2626.00,1673.00,474.00,241.00,150.00,176.00,111.00,44.00,APPROVED
OK: OKLAHOMA CITY,01/07/2013 06:11:00,,2654.00,1670.00,475.00,238.00,150.00,174.00,109.00,45.00,APPROVED
OK: OKLAHOMA CITY,01/07/2013 07:11:00,,2664.00,1697.00,472.00,242.00,150.00,173.00,109.00,44.00,APPROVED
OK: OKLAHOMA CITY,01/07/2013 08:11:00,,2685.00,1704.00,478.00,239.00,151.00,172.00,106.00,44.00,APPROVED
OK: OKLAHOMA CITY,01/07/2013 09:12:00,,2675.00,1704.00,476.00,242.00,151.00,176.00,108.00,43.00,APPROVED
OK: OKLAHOMA CITY,01/07/2013 10:12:00,,2697.00,1711.00,478.00,241.00,153.00,177.00,109.00,44.00,APPROVED
OK: OKLAHOMA CITY,01/07/2013 11:12:00,,2724.00,1734.00,485.00,248.00,151.00,182.00,111.00,45.00,APPROVED
OK: OKLAHOMA CITY,01/07/2013 12:12:00,,2719.00,1734.00,487.00,246.00,153.00,179.00,110.00,45.00,APPROVED
OK: OKLAHOMA CITY,01/07/2013 13:12:00,,2727.00,1749.00,485.00,252.00,154.00,183.00,113.00,45.00,APPROVED
OK: OKLAHOMA CITY,01/07/2013 14:13:00,,2732.00,1755.00,492.00,248.00,156.00,180.00,108.00,46.00,APPROVED
OK: OKLAHOMA CITY,01/07/2013 15:13:00,,2741.00,1755.00,493.00,253.00,155.00,184.00,109.00,45.00,APPROVED
OK: OKLAHOMA CITY,01/07/2013 16:13:00,,2736.00,1747.00,492.00,255.00,157.00,183.00,108.00,46.00,APPROVED
OK: OKLAHOMA CITY,01/07/2013 17:13:00,,2737.00,1757.00,499.00,257.00,158.00,190.00,112.00,44.00,APPROVED
OK: OKLAHOMA CITY,01/07/2013 18:12:00,,2690.00,1727.00,502.00,259.00,158.00,187.00,117.00,46.00,APPROVED
OK: OKLAHOMA CITY,01/07/2013 19:27:00,,2575.00,1594.00,462.00,229.00,149.00,167.00,108.00,43.00,APPROVED
OK: OKLAHOMA CITY,01/07/2013 20:27:00,,2542.00,1618.00,471.00,241.00,152.00,178.00,112.00,44.00,APPROVED
OK: OKLAHOMA CITY,01/07/2013 21:27:00,,2494.00,1614.00,470.00,242.00,155.00,177.00,112.00,45.00,APPROVED
OK: OKLAHOMA CITY,01/07/2013 22:28:00,,2504.00,1599.00,465.00,243.00,151.00,179.00,113.00,44.00,APPROVED
OK: OKLAHOMA CITY,01/07/2013 23:28:00,,2521.00,1622.00,471.00,242.00,153.00,176.00,112.00,44.00,APPROVED
OK: OKLAHOMA CITY,01/08/2013 00:28:00,,2562.00,1655.00,481.00,251.00,154.00,179.00,116.00,44.00,APPROVED
OK: OKLAHOMA CITY,01/08/2013 01:28:00,,2628.00,1687.00,485.00,253.00,158.00,183.00,114.00,43.00,APPROVED
OK: OKLAHOMA CITY,01/08/2013 02:29:00,,2681.00,1737.00,493.00,259.00,160.00,185.00,114.00,45.00,APPROVED
OK: OKLAHOMA CITY,01/08/2013 03:29:00,,2715.00,1754.00,498.00,268.00,161.00,190.00,116.00,46.00,APPROVED
OK: OKLAHOMA CITY,01/08/2013 04:29:00,,2729.00,1769.00,500.00,266.00,162.00,189.00,116.00,47.00,APPROVED
OK: OKLAHOMA CITY,01/08/2013 05:29:00,,2759.00,1778.00,503.00,265.00,161.00,190.00,116.00,49.00,APPROVED
OK: OKLAHOMA CITY,01/08/2013 06:29:00,,2758.00,1793.00,506.00,269.00,163.00,192.00,116.00,45.00,APPROVED
OK: OKLAHOMA CITY,01/08/2013 07:30:00,,2767.00,1796.00,503.00,269.00,161.00,194.00,118.00,45.00,APPROVED
OK: OKLAHOMA CITY,01/08/2013 08:30:00,,2764.00,1795.00,503.00,264.00,164.00,193.00,115.00,46.00,APPROVED
OK: OKLAHOMA CITY,01/08/2013 09:30:00,,2796.00,1814.00,505.00,268.00,161.00,191.00,113.00,46.00,APPROVED
OK: OKLAHOMA CITY,01/08/2013 10:30:00,,2796.00,1826.00,515.00,273.00,163.00,197.00,116.00,45.00,APPROVED
OK: OKLAHOMA CITY,01/08/2013 11:30:00,,2801.00,1842.00,513.00,277.00,165.00,197.00,119.00,47.00,APPROVED
OK: OKLAHOMA CITY,01/08/2013 12:31:00,,2808.00,1844.00,516.00,275.00,163.00,200.00,118.00,46.00,APPROVED
OK: OKLAHOMA CITY,01/08/2013 13:31:00,,2823.00,1844.00,523.00,281.00,165.00,200.00,116.00,46.00,APPROVED
OK: OKLAHOMA CITY,01/08/2013 14:31:00,,2800.00,1849.00,524.00,277.00,168.00,200.00,119.00,49.00,APPROVED
OK: OKLAHOMA CITY,01/08/2013 15:31:00,,2765.00,1820.00,512.00,277.00,164.00,196.00,117.00,47.00,APPROVED
OK: OKLAHOMA CITY,01/08/2013 16:32:00,,2671.00,1748.00,508.00,271.00,164.00,195.00,119.00,48.00,APPROVED
OK: OKLAHOMA CITY,01/08/2013 17:32:00,,2538.00,1686.00,503.00,264.00,160.00,193.00,120.00,47.00,APPROVED
OK: OKLAHOMA CITY,01/08/2013 18:32:00,,2448.00,1625.00,497.00,259.00,162.00,194.00,120.00,46.00,APPROVED
OK: OKLAHOMA CITY,01/08/2013 19:32:00,,2414.00,1605.00,491.00,256.00,159.00,192.00,121.00,48.00,APPROVED
OK: OKLAHOMA CITY,01/08/2013 20:32:00,,2455.00,1635.00,492.00,259.00,162.00,190.00,117.00,47.00,APPROVED
OK: OKLAHOMA CITY,01/08/2013 21:33:00,,2489.00,1658.00,489.00,262.00,159.00,188.00,121.00,48.00,APPROVED
OK: OKLAHOMA CITY,01/08/2013 22:33:00,,2508.00,1654.00,489.00,263.00,161.00,187.00,119.00,48.00,APPROVED
OK: OKLAHOMA CITY,01/08/2013 23:33:00,,2548.00,1702.00,497.00,272.00,161.00,194.00,122.00,49.00,APPROVED
OK: OKLAHOMA CITY,01/09/2013 00:33:00,,2680.00,1794.00,520.00,284.00,167.00,205.00,127.00,48.00,APPROVED
OK: OKLAHOMA CITY,01/09/2013 01:34:00,,2779.00,1855.00,539.00,293.00,174.00,207.00,128.00,49.00,APPROVED
OK: OKLAHOMA CITY,01/09/2013 02:34:00,,2775.00,1874.00,534.00,296.00,173.00,207.00,127.00,49.00,APPROVED
OK: OKLAHOMA CITY,01/09/2013 03:34:00,,2711.00,1790.00,511.00,276.00,165.00,194.00,122.00,48.00,APPROVED
OK: OKLAHOMA CITY,01/09/2013 04:34:00,,2798.00,1855.00,525.00,293.00,170.00,203.00,124.00,48.00,APPROVED
OK: OKLAHOMA CITY,01/09/2013 05:34:00,,2773.00,1824.00,514.00,280.00,167.00,198.00,122.00,47.00,APPROVED
OK: OKLAHOMA CITY,01/09/2013 06:35:00,,2721.00,1799.00,504.00,277.00,167.00,194.00,119.00,46.00,APPROVED
OK: OKLAHOMA CITY,01/09/2013 07:35:00,,2691.00,1773.00,502.00,274.00,164.00,193.00,119.00,47.00,APPROVED
OK: OKLAHOMA CITY,01/09/2013 08:35:00,,2691.00,1790.00,505.00,281.00,164.00,196.00,120.00,48.00,APPROVED
OK: OKLAHOMA CITY,01/09/2013 09:35:00,,2737.00,1823.00,515.00,284.00,166.00,197.00,122.00,46.00,APPROVED
OK: OKLAHOMA CITY,01/09/2013 10:36:00,,2837.00,1919.00,536.00,301.00,171.00,211.00,127.00,49.00,APPROVED
OK: OKLAHOMA CITY,01/09/2013 11:36:00,,2845.00,1928.00,538.00,302.00,174.00,213.00,130.00,50.00,APPROVED
OK: OKLAHOMA CITY,01/09/2013 12:36:00,,2843.00,1901.00,535.00,294.00,170.00,208.00,123.00,50.00,APPROVED
OK: OKLAHOMA CITY,01/09/2013 13:36:00,,2838.00,1893.00,534.00,295.00,168.00,203.00,124.00,49.00,APPROVED
OK: OKLAHOMA CITY,01/09/2013 14:36:00,,2831.00,1900.00,531.00,293.00,166.00,205.00,125.00,48.00,APPROVED
OK: OKLAHOMA CITY,01/09/2013 15:37:00,,2852.00,1932.00,544.00,305.00,173.00,212.00,127.00,49.00,APPROVED
OK: OKLAHOMA CITY,01/09/2013 16:37:00,,2886.00,1958.00,548.00,309.00,177.00,214.00,128.00,50.00,APPROVED
OK: OKLAHOMA CITY,01/09/2013 17:37:00,,2914.00,1982.00,553.00,314.00,179.00,218.00,130.00,51.00,APPROVED
OK: OKLAHOMA CITY,01/09/2013 18:37:00,,2986.00,2055.00,571.00,326.00,181.00,223.00,136.00,52.00,APPROVED
OK: OKLAHOMA CITY,01/09/2013 19:37:00,,3089.00,2138.00,600.00,342.00,189.00,238.00,135.00,52.00,APPROVED
OK: OKLAHOMA CITY,01/09/2013 20:38:00,,3017.00,2082.00,578.00,332.00,184.00,225.00,134.00,50.00,APPROVED
OK: OKLAHOMA CITY,01/09/2013 21:38:00,,2966.00,2042.00,571.00,327.00,181.00,222.00,134.00,50.00,APPROVED
OK: OKLAHOMA CITY,01/09/2013 22:38:00,,2915.00,1977.00,555.00,307.00,173.00,217.00,128.00,49.00,APPROVED
OK: OKLAHOMA CITY,01/09/2013 23:38:00,,2940.00,1994.00,555.00,312.00,177.00,215.00,128.00,50.00,APPROVED
OK: OKLAHOMA CITY,01/10/2013 00:39:00,,2945.00,1988.00,561.00,313.00,173.00,214.00,128.00,49.00,APPROVED
OK: OKLAHOMA CITY,01/10/2013 01:39:00,,2997.00,2044.00,559.00,318.00,180.00,219.00,128.00,50.00,APPROVED
OK: OKLAHOMA CITY,01/10/2013 02:39:00,,3032.00,2075.00,571.00,324.00,178.00,224.00,135.00,51.00,APPROVED
OK: OKLAHOMA CITY,01/10/2013 03:39:00,,3024.00,2054.00,576.00,322.00,181.00,222.00,131.00,53.00,APPROVED
OK: OKLAHOMA CITY,01/10/2013 04:39:00,,2957.00,1988.00,553.00,306.00,174.00,216.00,129.00,51.00,APPROVED
OK: OKLAHOMA CITY,01/10/2013 05:40:00,,2965.00,2010.00,561.00,310.00,176.00,219.00,131.00,52.00,APPROVED
OK: OKLAHOMA CITY,01/10/2013 06:40:00,,3008.00,2058.00,573.00,321.00,181.00,224.00,133.00,50.00,APPROVED
OK: OKLAHOMA CITY,01/10/2013 07:40:00,,3017.00,2071.00,577.00,329.00,177.00,225.00,136.00,50.00,APPROVED
OK: OKLAHOMA CITY,01/10/2013 08:40:00,,2859.00,1933.00,542.00,305.00,168.00,204.00,126.00,49.00,APPROVED
OK: OKLAHOMA CITY,01/10/2013 09:41:00,,2778.00,1871.00,530.00,296.00,169.00,207.00,123.00,50.00,APPROVED
OK: OKLAHOMA CITY,01/10/2013 10:41:00,,2744.00,1852.00,520.00,289.00,166.00,200.00,126.00,48.00,APPROVED
OK: OKLAHOMA CITY,01/10/2013 11:41:00,,2826.00,1908.00,537.00,294.00,168.00,206.00,126.00,50.00,APPROVED
OK: OKLAHOMA CITY,01/10/2013 12:41:00,,2859.00,1922.00,544.00,300.00,166.00,210.00,126.00,49.00,APPROVED
OK: OKLAHOMA CITY,01/10/2013 13:41:00,,2933.00,2009.00,561.00,318.00,177.00,219.00,132.00,51.00,APPROVED
OK: OKLAHOMA CITY,01/10/2013 14:42:00,,2977.00,2051.00,574.00,331.00,181.00,229.00,135.00,51.00,APPROVED
OK: OKLAHOMA CITY,01/10/2013 15:42:00,,2865.00,1941.00,551.00,311.00,175.00,214.00,129.00,50.00,APPROVED
OK: OKLAHOMA CITY,01/10/2013 16:42:00,,2822.00,1907.00,543.00,306.00,172.00,214.00,130.00,48.00,APPROVED
OK: OKLAHOMA CITY,01/10/2013 17:42:00,,2795.00,1895.00,549.00,309.00,175.00,215.00,132.00,50.00,APPROVED